Location: Newark
(48.5667°N, 7.8167°E)
Time: 13:27:55
(UTC+00:00)

X-37B - Pass Details

Date: 03 August 2021
Orbit: 381 x 393 km, 45.0° (Epoch: 29 August)

Event Time Altitude Azimuth Distance (km) Brightness Sun altitude
Exits shadow 03:12:17 11° 215° (SW) 1,350 2.7 -8.2°
Maximum altitude 03:14:46 24° 160° (SSE) 831 2.1 -7.9°
Drops below altitude 10° 03:17:23 10° 103° (ESE) 1,399 4.0 -7.6°
Sets 03:19:40 0° 89° (E) 2,255 5.4 -7.3°
